GFSFLT2_500_spd_000.txt.gz
Wind_Speed
9 7 5 4 3 5 6 9 11 11 13 13 16 18 19 22 23 25 25 26 26 25 25 25 25 25 24 25 27 27 25 24
8 6 5 7 9 11 11 12 14 14 16 18 20 22 24 26 27 26 24 25 25 24 25 26 26 24 25 26 24 24 24 25
7 7 10 11 11 12 13 14 15 18 20 21 23 25 26 26 25 25 25 25 28 29 30 33 33 31 30 30 28 28 26 25
11 12 13 10 10 13 15 17 18 20 21 22 23 24 26 27 27 28 28 30 32 34 35 35 36 35 32 33 31 31 29 29
15 13 13 12 13 16 17 20 25 24 25 26 26 27 29 30 30 31 32 35 36 37 37 35 34 34 32 30 27 29 31 29
16 17 16 17 18 21 22 23 24 27 28 28 29 31 33 33 33 35 36 36 36 36 35 33 31 29 28 28 31 32 32 31
21 19 19 19 20 23 22 26 29 27 27 28 28 35 37 38 40 41 39 37 36 35 33 31 30 28 28 31 33 33 34 35
16 20 22 7 26 28 33 34 31 32 30 30 36 39 38 41 43 44 41 40 38 37 36 35 33 34 34 35 36 37 39 41
20 20 20 25 24 28 35 33 34 37 38 42 43 45 43 44 41 41 41 41 42 45 44 42 41 39 40 42 44 45 44 44
32 31 27 31 31 33 35 38 42 41 40 45 51 47 47 40 41 41 43 45 45 47 49 50 51 51 51 52 52 52 52 50
34 30 36 35 40 39 43 41 41 37 46 50 50 51 50 48 48 48 47 48 50 52 53 55 57 57 58 58 59 60 61 62
31 36 40 40 44 45 44 42 40 43 48 48 53 51 50 50 51 52 54 56 57 58 59 62 65 65 65 65 67 67 68 70
40 41 43 49 47 40 39 39 41 49 49 51 50 50 51 54 56 59 60 62 64 65 68 70 71 73 73 73 73 72 73 74
41 43 46 45 44 42 40 45 48 48 48 52 55 56 58 60 63 66 68 71 73 74 75 75 77 78 77 78 78 77 77 78
42 43 44 43 42 45 48 45 46 48 52 55 58 60 63 66 69 72 74 77 79 81 82 82 82 82 83 85 84 84 86 83
42 45 46 46 45 44 45 46 49 51 54 57 61 64 68 71 74 77 80 82 84 84 85 84 84 84 86 86 88 88 88 87
39 40 42 43 42 44 45 48 50 53 58 62 65 69 73 75 78 80 81 83 82 81 82 84 85 87 88 89 89 89 88 89
36 39 39 39 41 43 44 48 53 57 61 65 69 72 76 78 81 84 85 80 79 79 80 82 83 85 86 86 87 89 90 91
33 36 39 40 40 42 48 53 57 61 66 71 74 81 84 84 83 83 82 83 83 84 84 85 85 85 85 86 87 88 90 90
28 31 34 39 46 53 58 63 66 71 74 76 82 84 87 87 86 85 85 86 87 87 87 84 82 83 84 84 82 81 78 75

GFSFLT2_500_spd_003.txt.gz
Wind_Speed
10 11 10 8 7 9 9 11 12 14 16 18 19 21 23 25 28 30 32 32 28 25 25 25 26 26 28 29 29 27 28 29
11 11 9 9 10 10 12 15 15 16 19 20 22 24 26 29 29 28 27 28 29 28 29 29 30 31 32 31 29 30 29 31
12 10 9 12 12 13 14 17 18 21 25 24 24 26 27 28 27 27 28 29 31 32 35 37 38 36 35 34 31 29 29 29
11 12 13 13 13 15 18 21 22 24 26 26 26 26 29 29 29 29 29 30 33 36 37 37 37 37 34 33 30 28 26 26
12 12 11 14 16 19 21 23 22 24 25 29 30 29 29 28 32 33 32 33 36 37 37 31 28 31 33 32 30 28 25 25
11 14 15 20 20 20 23 27 24 25 29 30 29 30 29 31 37 36 35 35 36 32 32 31 30 29 30 31 33 32 32 30
15 16 19 22 26 20 25 31 25 33 33 27 33 35 32 35 39 37 36 33 30 30 31 31 31 31 32 32 33 36 38 38
14 13 18 13 18 22 20 23 29 32 33 35 37 39 40 38 38 35 34 34 34 34 35 35 35 35 36 37 37 38 40 42
18 20 25 25 22 25 27 31 31 36 41 38 37 37 38 42 38 35 37 38 39 40 42 44 46 44 44 44 45 46 47 47
22 25 27 20 22 27 28 41 41 40 38 36 39 40 46 43 39 39 40 42 43 43 46 48 49 50 50 51 52 54 56 57
26 21 19 29 19 30 36 42 41 37 38 40 45 45 49 44 42 43 46 46 48 49 50 52 54 56 58 60 61 62 63 63
26 30 31 35 36 40 43 44 32 39 43 46 49 48 48 48 48 49 49 51 54 56 57 60 62 63 63 64 65 67 70 70
32 36 39 41 44 44 44 37 45 36 47 45 48 48 46 47 50 54 58 60 61 62 65 66 67 69 71 71 71 73 74 76
33 39 43 45 44 45 42 42 42 47 50 50 50 51 53 56 59 62 65 67 69 72 75 75 75 77 77 77 78 76 77 79
38 38 41 45 45 44 45 47 46 47 49 50 52 55 59 62 65 69 72 75 76 79 81 81 81 81 81 81 80 80 81 78
42 43 47 48 46 44 45 44 45 47 49 53 58 62 65 69 72 75 77 79 80 81 83 85 84 84 83 82 84 87 88 91
45 47 43 40 39 40 41 43 44 49 55 59 62 65 68 71 75 78 80 83 85 85 85 84 85 85 86 87 88 90 94 95
44 41 40 38 39 39 40 44 48 52 56 60 62 66 70 78 82 84 87 88 88 88 89 89 89 89 88 88 88 88 89 91
35 32 32 34 37 39 43 48 52 57 60 64 69 76 83 85 86 88 89 89 89 90 90 91 92 88 84 73 71 73 79 80
29 33 37 40 44 47 51 57 62 65 69 73 78 81 85 88 90 92 93 94 95 95 95 91 84 79 74 66 72 77 75 64

GFSFLT2_500_spd_006.txt.gz
Wind_Speed
9 7 10 8 8 10 12 13 14 14 17 19 20 22 25 29 31 30 32 30 29 28 26 27 28 29 31 33 33 32 30 29
8 10 9 9 11 12 14 16 17 18 19 21 23 26 29 31 32 32 30 30 31 32 30 30 32 34 34 33 33 31 28 28
7 8 9 10 12 15 17 17 18 19 20 23 26 28 31 33 33 32 30 29 31 32 32 33 35 35 37 34 31 29 28 28
6 8 10 11 14 17 17 17 19 19 20 23 26 27 31 33 33 34 30 35 33 33 34 35 34 33 30 31 31 28 26 27
8 9 11 14 16 19 21 22 23 23 25 25 28 31 32 33 35 37 34 36 37 36 34 33 30 26 26 27 28 29 27 27
7 11 15 18 21 21 24 24 25 26 26 29 33 33 34 34 38 38 38 42 36 31 29 30 28 27 27 28 28 28 29 30
13 17 19 20 20 19 18 20 22 22 25 28 30 32 34 38 38 38 37 38 33 30 29 30 30 30 31 31 32 33 34 34
16 19 21 23 23 26 26 27 26 21 24 29 33 36 37 34 37 38 38 38 36 34 33 34 36 37 38 38 38 39 40 40
18 21 23 26 30 16 24 25 18 27 33 36 30 31 31 36 39 40 41 39 39 37 36 37 39 40 42 42 42 44 44 46
20 20 18 18 19 15 21 22 32 32 37 32 26 35 39 42 44 41 41 39 39 40 41 43 45 47 49 49 50 51 53 54
22 17 18 26 22 34 34 38 38 35 32 29 41 44 43 47 43 44 44 44 45 48 49 51 54 54 56 58 60 62 63 64
22 22 24 24 33 41 45 43 43 38 38 41 42 48 52 51 49 49 50 53 53 55 57 59 61 62 64 66 68 69 71 72
26 30 30 36 43 51 50 48 42 39 41 47 53 52 48 48 50 54 56 58 60 63 66 68 70 72 74 75 75 77 76 76
29 34 39 43 47 50 49 48 48 49 47 45 45 46 47 51 55 58 61 63 66 70 73 76 78 80 81 81 82 80 78 79
37 39 41 43 47 46 41 40 41 42 42 43 43 48 53 57 61 63 65 68 71 75 77 80 83 84 84 85 87 90 91 89
39 40 45 46 45 43 42 41 41 41 42 46 50 54 59 61 62 64 68 74 76 79 81 86 90 93 93 93 95 95 93 94
40 49 48 45 45 44 42 42 44 47 49 53 56 57 58 61 66 71 76 81 83 85 90 94 96 95 94 93 93 93 94 96
47 39 40 41 38 39 42 44 47 48 52 56 59 61 65 70 75 82 86 87 90 92 95 96 96 95 94 93 90 86 83 81
37 41 38 39 41 45 47 49 52 55 58 61 63 66 72 77 81 85 86 89 93 97 97 100 101 100 92 86 81 72 67 67
41 39 41 46 49 51 51 51 53 57 60 63 67 72 77 80 84 89 92 95 99 100 100 98 94 86 81 73 66 67 69 61

GFSFLT2_500_spd_009.txt.gz
Wind_Speed
9 9 8 8 7 7 6 8 12 15 17 19 22 24 25 27 28 29 30 32 33 32 30 30 30 30 31 31 30 29 30 30
8 8 8 7 4 5 9 14 17 18 19 21 23 26 27 27 27 28 30 30 32 30 30 33 32 32 32 33 32 29 27 26
7 6 4 4 6 10 14 15 17 18 21 24 25 27 28 27 29 32 33 31 33 32 35 37 36 35 34 33 33 31 27 24
5 4 5 7 10 13 14 17 19 25 26 25 26 29 30 29 30 33 32 34 35 35 38 41 36 35 33 31 27 25 26 24
4 4 6 10 13 15 18 21 24 28 28 27 27 28 30 33 33 34 33 35 34 34 37 37 34 30 27 27 25 24 23 24
3 7 11 14 17 21 25 28 30 32 33 24 25 28 30 33 33 34 35 33 34 37 35 33 31 30 28 28 29 29 28 27
6 10 13 19 21 24 26 28 29 29 27 23 27 28 29 31 33 33 29 32 37 40 40 37 36 35 34 33 32 33 33 33
11 13 16 19 23 26 31 32 30 29 27 23 29 25 25 29 29 30 32 39 40 44 42 39 37 35 35 36 37 37 39 39
15 16 17 21 20 18 28 30 31 11 20 27 26 25 25 31 32 37 37 42 44 45 42 39 38 40 42 44 45 46 47 47
17 21 20 17 20 21 32 21 28 35 36 31 32 46 37 34 42 40 45 48 48 46 43 44 47 48 50 52 54 55 55 56
21 22 18 19 21 28 33 37 42 43 41 38 32 36 40 44 49 50 47 46 46 46 48 50 52 54 57 59 60 62 63 63
20 19 22 25 27 37 43 44 44 46 47 43 45 49 47 44 45 45 44 47 50 52 53 55 58 60 63 66 68 69 70 71
23 25 32 37 38 41 44 45 49 52 49 43 40 41 43 44 44 46 49 52 56 57 59 62 65 68 71 72 72 71 74 77
29 34 36 39 43 45 49 51 49 47 44 42 42 42 42 44 49 53 57 60 59 60 63 65 69 71 74 76 78 80 81 86
34 38 33 36 41 46 49 46 44 41 41 42 45 48 50 53 57 60 62 60 61 64 68 70 75 78 82 86 89 92 97 97
37 40 40 45 49 45 44 46 44 45 47 49 51 53 55 58 60 60 61 64 69 72 74 79 85 88 92 95 102 107 107 107
39 42 42 42 41 45 43 42 43 46 48 51 53 55 57 60 61 63 68 72 75 80 84 88 91 95 98 102 104 103 101 99
33 35 38 41 43 43 44 46 50 53 55 55 56 58 60 62 66 70 74 77 81 85 89 93 97 100 104 104 101 95 90 83
33 36 40 42 44 46 49 51 52 53 56 57 59 61 64 68 72 75 79 83 87 92 95 98 102 102 101 95 86 77 71 68
33 36 40 43 46 49 51 53 55 56 58 60 62 65 69 72 75 78 83 86 90 95 101 104 104 101 89 77 69 62 57 54

GFSFLT2_500_spd_015.txt.gz
Wind_Speed
15 18 14 9 7 7 8 8 6 7 10 14 17 20 23 24 27 27 27 27 32 28 26 26 27 26 27 30 31 29 29 31
8 8 8 7 6 5 7 7 8 10 15 18 21 23 26 28 31 30 29 28 30 28 28 28 29 30 30 32 33 34 34 34
4 5 3 3 5 7 7 10 12 14 17 19 23 26 30 32 34 35 32 32 32 31 30 29 32 32 31 35 36 37 37 35
3 3 4 6 8 8 9 9 12 16 19 22 27 28 29 33 35 32 35 34 34 36 34 31 32 34 37 34 35 37 38 39
4 4 6 6 7 8 10 13 16 19 22 26 28 27 28 31 36 29 37 37 35 32 33 30 34 36 35 35 37 40 40 42
5 7 7 7 8 10 14 17 21 23 26 31 32 27 29 33 32 30 26 30 31 31 32 39 43 41 39 39 38 38 43 43
7 8 7 9 11 15 19 22 24 26 29 32 30 25 28 33 33 35 29 38 36 45 46 43 41 40 42 43 42 43 43 41
8 8 9 12 15 19 21 25 29 24 27 20 23 28 29 34 37 43 44 42 46 51 45 45 46 50 47 47 46 44 43 43
10 12 13 15 17 20 23 27 21 26 35 41 46 33 32 31 40 40 40 36 41 44 49 52 51 47 45 43 44 44 45 45
13 15 18 19 20 21 24 32 39 38 39 39 41 44 40 32 35 35 39 41 42 44 45 46 46 47 48 46 48 49 51 52
16 19 20 22 20 24 27 34 39 38 41 44 47 44 41 42 40 40 40 42 44 45 47 50 52 51 53 55 57 59 59 60
20 24 24 22 24 29 33 37 42 44 45 46 45 44 42 42 41 42 45 49 52 54 55 55 55 56 55 55 54 56 59 62
22 24 22 25 29 33 36 38 37 35 40 44 45 46 46 47 49 52 53 53 56 56 55 55 56 56 59 59 58 60 63 67
24 26 28 31 33 35 33 32 33 36 38 41 43 46 49 51 51 53 55 56 57 57 58 56 56 58 61 64 63 64 68 73
26 26 28 30 29 28 28 30 34 37 39 42 45 48 51 53 56 57 57 57 57 57 58 58 59 61 65 68 72 76 78 80
23 21 21 22 24 27 30 34 38 41 45 48 51 52 53 55 58 58 59 58 58 58 60 61 65 68 72 76 80 83 86 90
17 18 21 24 27 30 33 36 40 43 47 51 53 55 56 58 61 61 61 60 61 61 63 68 72 75 80 82 86 90 94 98
19 21 23 27 30 33 36 40 44 47 50 50 54 57 58 60 62 63 63 63 63 66 70 73 77 82 84 88 94 98 103 103
23 25 28 31 35 37 41 45 49 50 51 56 59 60 61 62 64 65 65 66 69 72 76 80 83 86 91 98 102 101 95 86
27 30 33 36 39 42 45 48 51 53 56 60 61 63 63 63 65 66 66 69 73 76 81 85 88 92 100 101 94 86 79 71

GFSFLT2_500_spd_021.txt.gz
Wind_Speed
36 27 25 27 24 25 17 13 11 9 8 5 4 8 9 14 19 20 23 26 30 30 31 27 26 27 29 28 27 28 27 30
40 33 25 23 16 10 9 15 9 5 2 5 9 8 15 16 20 23 25 28 28 30 31 25 25 27 28 28 26 25 26 33
42 22 24 8 10 11 16 6 5 4 5 9 12 11 15 18 21 25 27 28 24 26 29 18 26 26 26 26 24 31 36 42
11 7 14 21 24 18 11 8 6 5 7 10 13 14 16 19 17 20 20 22 28 32 35 29 27 29 33 36 34 40 47 45
19 20 19 14 11 7 6 5 2 8 11 15 18 17 16 17 21 30 22 25 27 27 29 33 33 40 37 36 33 37 43 46
11 13 11 8 7 3 2 3 3 8 8 12 13 15 15 27 25 25 26 26 23 26 29 33 37 36 38 37 37 36 38 42
9 9 6 4 3 3 4 6 8 11 9 18 18 16 21 22 25 23 23 24 24 25 26 28 31 35 37 39 42 43 42 40
6 5 5 4 3 5 7 9 11 12 15 19 23 21 18 18 19 20 23 26 27 28 29 31 34 36 39 43 45 46 47 47
4 4 4 6 8 9 12 13 15 17 21 22 18 16 17 19 22 26 28 30 31 32 33 36 38 39 40 41 43 45 47 48
6 7 9 11 13 15 18 16 18 20 24 17 16 20 23 25 27 30 32 34 36 38 40 41 44 46 48 50 52 50 45 43
8 11 15 19 16 18 19 21 24 25 18 18 21 24 27 31 33 35 38 39 40 42 44 47 49 49 50 52 52 49 46 46
11 16 18 20 17 19 22 21 21 19 19 23 27 30 34 36 37 38 41 42 44 46 48 49 52 52 52 53 50 48 46 47
15 16 17 22 21 21 19 18 18 21 24 28 33 36 39 41 42 43 46 48 49 50 51 53 55 55 55 54 49 47 49 52
14 17 22 23 18 16 17 19 22 25 29 34 38 40 43 45 46 48 51 53 54 55 55 57 58 57 57 55 49 48 51 55
19 23 21 16 16 19 21 24 27 30 34 38 42 45 48 51 52 54 56 59 57 56 58 58 58 58 55 53 54 57 60 62
25 23 18 17 20 23 25 29 31 35 38 41 44 47 50 53 56 59 61 61 61 60 59 60 60 57 54 57 61 65 68 69
23 20 19 20 24 27 31 35 38 41 45 47 50 52 55 58 59 61 61 62 61 60 60 62 59 56 57 62 66 68 71 75
17 19 20 24 29 33 36 39 42 46 50 52 55 58 59 59 60 61 62 61 59 59 62 60 57 58 61 67 70 72 76 81
19 20 24 29 34 38 42 45 49 51 54 56 57 58 59 60 60 60 60 58 58 62 60 58 60 62 64 70 72 76 82 86
24 26 30 33 38 43 47 50 52 54 55 57 58 59 61 61 60 59 59 59 61 60 59 61 64 66 68 74 77 82 83 86

GFSFLT2_500_spd_024.txt.gz
Wind_Speed
37 38 23 34 37 32 30 28 19 10 9 8 9 9 9 10 15 17 22 25 27 28 28 28 27 28 23 29 26 23 24 23
36 40 22 28 28 23 17 9 16 11 10 6 6 6 12 13 18 20 20 21 25 27 22 26 29 27 19 23 25 27 27 27
17 36 40 28 19 14 12 17 15 12 9 8 9 12 15 20 19 19 20 20 20 20 22 25 26 25 26 26 29 32 34 34
28 27 23 15 12 18 17 14 12 8 6 9 12 13 15 16 13 14 19 22 21 23 23 26 28 29 31 32 34 34 36 39
28 16 8 11 18 17 16 10 5 5 8 10 4 6 9 15 20 23 22 23 22 23 23 24 26 30 31 30 30 29 31 34
14 15 10 14 12 11 9 7 8 6 5 8 8 13 14 16 17 18 15 14 16 18 21 24 27 30 32 33 34 36 37 37
17 16 15 13 11 8 6 5 3 6 7 8 13 15 16 11 10 14 16 19 23 26 28 30 31 32 34 36 37 39 40 40
12 13 12 9 6 4 0 4 5 6 8 12 15 12 8 10 14 19 23 25 27 28 29 31 32 34 35 37 39 41 43 45
8 7 6 4 3 2 4 6 7 9 12 16 11 9 12 15 20 23 25 27 28 30 32 34 36 37 38 40 42 43 45 47
6 4 5 5 5 4 6 8 11 15 16 12 9 14 17 19 23 26 29 30 32 34 37 39 40 40 41 44 47 47 48 50
3 4 7 7 8 8 10 12 15 16 12 11 14 19 22 25 28 33 35 37 38 40 41 44 47 46 45 47 49 51 51 50
8 9 9 10 14 14 14 14 13 11 12 16 19 23 27 31 34 37 39 41 43 46 48 51 52 50 49 49 51 52 53 50
13 11 14 15 17 13 10 10 12 14 18 22 26 29 32 37 39 42 44 47 50 52 52 53 53 52 52 51 53 54 51 48
8 10 16 16 12 10 12 15 17 21 25 29 32 36 39 42 45 48 50 53 54 56 57 56 56 54 53 53 54 50 46 47
6 13 12 11 11 12 16 19 23 27 30 33 37 39 42 46 49 52 54 55 56 58 58 57 54 53 53 55 53 48 49 52
11 15 10 10 14 17 21 25 29 32 35 38 41 44 47 49 52 54 57 58 59 59 58 55 54 54 56 54 52 54 57 58
12 9 12 14 17 22 26 30 34 37 40 43 46 48 50 52 55 58 58 59 59 58 56 55 56 57 54 53 55 57 60 64
11 14 16 19 22 27 32 36 39 42 45 48 51 52 55 57 59 59 59 60 59 57 57 58 59 57 56 56 58 62 66 69
12 16 20 25 28 32 37 41 45 48 51 53 56 57 59 60 60 58 61 60 57 60 61 60 59 60 61 63 66 69 74 75
17 20 25 29 33 38 42 45 48 51 53 55 57 59 59 60 58 62 61 59 60 62 61 62 63 62 66 68 70 74 78 83

GFSFLT2_500_spd_030.txt.gz
Wind_Speed
38 35 41 50 43 38 31 33 31 30 32 39 30 11 7 7 12 14 16 15 14 17 23 28 30 24 24 24 25 24 23 23
26 45 48 52 44 42 31 30 32 33 32 21 13 8 10 13 11 10 8 13 20 24 26 23 25 24 22 21 20 21 23 25
40 43 45 47 42 42 33 38 32 27 10 13 10 9 9 6 8 13 16 19 23 20 21 19 17 17 18 21 24 27 29 31
27 40 41 44 45 43 44 29 25 18 20 15 14 7 8 10 14 18 18 18 19 16 11 14 17 21 24 26 26 28 29 31
23 27 30 34 32 25 32 26 14 15 14 11 8 13 15 11 9 14 17 18 12 13 15 18 22 25 27 29 30 31 31 31
15 3 15 18 20 20 20 15 15 11 11 10 10 10 9 10 14 13 8 10 12 17 21 24 26 29 31 31 32 35 37 37
23 22 21 15 17 17 16 15 13 12 10 8 11 12 10 9 5 6 10 13 18 21 25 29 32 35 37 38 39 41 42 43
21 20 18 16 15 14 12 14 12 10 9 6 10 9 8 6 7 10 15 19 22 26 30 34 36 39 40 42 43 45 45 46
17 15 13 10 10 11 10 10 12 10 6 7 9 8 6 8 12 15 20 24 28 31 34 37 40 42 44 46 47 47 48 47
16 14 11 7 5 7 8 7 9 7 6 7 7 9 11 13 16 21 25 30 33 35 39 42 44 46 47 48 49 49 49 47
11 8 8 7 4 3 6 7 5 6 7 5 8 11 13 17 21 26 30 34 38 40 43 45 47 48 49 50 51 50 49 47
5 6 5 3 5 5 6 6 6 6 5 8 10 14 19 23 27 31 35 38 41 43 46 48 49 51 52 52 50 48 45 45
7 8 5 4 7 5 5 6 5 6 8 12 16 20 24 28 32 35 39 42 44 46 48 50 51 51 51 50 50 47 46 47
6 9 4 5 4 5 6 6 9 11 13 17 21 26 29 32 35 38 42 46 48 48 48 49 49 49 51 51 50 49 52 54
6 9 8 7 9 8 11 13 16 18 18 22 26 31 34 37 40 44 46 46 46 46 48 49 48 51 52 52 52 53 55 55
8 11 9 10 12 11 13 16 19 21 21 28 33 36 40 43 44 45 47 47 48 45 48 52 54 53 53 54 57 58 59 60
12 16 14 11 13 13 14 18 22 24 27 36 39 42 45 47 45 48 46 45 42 41 58 58 56 55 57 59 59 62 64 67
17 24 7 7 12 16 17 22 25 28 32 39 43 46 47 46 47 47 48 43 45 52 58 57 57 59 60 62 65 69 72 75
13 13 14 12 16 19 24 28 30 34 38 44 46 46 47 46 45 48 51 50 51 54 55 57 59 61 63 67 72 75 79 81
9 15 14 16 20 24 27 33 37 40 45 43 42 46 48 48 50 52 51 51 52 55 57 59 61 64 68 72 76 80 82 86

GFSFLT2_500_spd_033.txt.gz
Wind_Speed
29 28 30 33 41 45 45 27 33 28 24 24 24 27 23 11 12 7 8 11 12 14 15 20 22 20 22 20 15 15 17 20
30 27 35 48 38 49 39 38 32 29 32 28 22 13 13 11 8 9 9 9 11 15 20 20 19 16 12 13 17 19 22 24
29 28 39 46 38 46 39 38 40 34 34 26 17 17 13 10 10 9 11 12 16 18 18 14 11 12 15 19 23 24 27 28
24 29 46 40 41 49 45 47 44 34 26 18 15 12 11 10 12 11 14 17 16 15 10 11 14 17 19 22 24 27 29 31
26 28 38 43 49 45 38 32 31 29 25 21 21 17 15 13 15 15 16 17 16 10 10 14 17 20 23 26 28 30 32 34
22 29 30 36 34 35 35 34 21 14 20 18 13 11 14 12 12 14 17 13 9 11 16 18 22 24 27 30 32 35 36 38
18 15 14 11 20 19 21 28 24 19 16 15 14 12 12 14 15 10 8 10 12 16 20 23 27 29 32 35 37 39 42 43
25 23 25 24 20 17 17 18 16 15 15 14 14 13 15 14 11 9 11 14 17 21 24 28 31 34 37 39 41 42 44 46
25 22 22 20 18 14 15 15 15 14 13 13 11 11 10 12 13 11 13 18 21 26 29 32 36 39 42 43 45 46 47 47
18 17 17 15 14 13 12 13 14 14 12 10 12 11 9 10 11 14 18 22 26 30 33 37 39 42 44 46 47 48 47 46
15 14 13 10 11 14 13 13 13 15 12 12 11 10 10 13 15 19 24 27 31 35 38 41 43 45 47 48 48 47 45 44
10 10 11 10 8 8 10 12 11 12 10 9 7 10 12 15 20 23 28 32 36 38 42 45 47 48 49 48 47 45 45 46
8 9 7 7 7 6 7 9 9 8 8 9 10 12 16 20 25 29 33 36 39 42 44 47 48 48 47 46 46 46 47 47
7 9 10 8 8 7 9 10 10 13 15 13 13 16 20 24 29 33 36 41 42 43 45 45 46 48 47 48 49 48 48 48
12 16 16 14 14 12 11 13 15 16 18 18 22 23 23 29 32 37 41 43 44 45 45 43 48 52 52 55 53 50 50 51
16 19 18 13 12 11 11 10 13 18 21 21 23 30 30 35 37 41 44 45 43 45 46 47 46 53 55 56 54 54 55 57
15 16 16 15 14 14 11 11 16 17 21 24 27 32 34 38 40 46 47 43 44 46 50 52 50 50 55 55 55 56 59 64
17 19 18 21 20 17 14 15 19 21 24 26 32 34 39 42 43 48 43 44 50 53 54 54 52 52 55 55 57 60 65 68
19 22 20 20 23 16 15 18 20 24 28 31 32 36 38 42 47 46 47 50 53 57 58 56 55 54 54 58 61 65 70 75
20 21 20 21 12 10 16 21 26 29 32 32 31 35 42 46 45 43 49 56 57 59 56 57 55 55 60 64 68 71 76 80

GFSFLT2_500_spd_036.txt.gz
Wind_Speed
29 25 28 28 30 35 32 29 37 25 26 24 21 20 21 21 22 17 13 12 11 9 13 13 14 16 16 15 12 13 15 18
28 24 27 27 32 38 34 36 32 36 28 27 29 23 24 23 18 14 11 9 11 11 12 16 16 15 11 11 13 17 18 20
29 27 30 30 37 38 43 46 43 38 31 32 32 28 23 17 15 13 11 11 12 10 13 14 10 10 12 16 18 20 24 26
33 33 31 38 35 38 49 39 53 35 33 39 34 24 18 16 15 14 12 11 12 12 14 11 11 13 17 20 22 25 28 30
33 33 32 39 38 48 42 33 41 45 37 37 26 22 17 15 13 12 11 12 12 15 14 10 14 18 20 23 26 29 33 35
34 33 29 30 27 39 43 52 53 45 34 27 22 18 15 15 15 13 12 13 15 11 11 15 18 22 25 28 31 34 37 39
31 32 27 24 36 28 35 46 30 22 22 16 19 16 14 15 12 12 13 9 10 13 16 19 22 25 29 33 35 38 40 42
24 29 26 29 23 22 27 34 31 21 21 17 14 13 14 13 15 15 11 11 14 16 20 23 26 30 33 37 40 42 44 44
24 24 22 22 21 21 22 22 19 20 17 16 16 16 13 16 15 13 12 14 17 21 24 28 31 34 37 40 43 44 44 46
25 24 27 22 21 18 16 14 16 13 15 14 15 14 12 11 13 13 14 18 21 25 29 33 35 38 41 43 43 44 47 47
16 16 17 15 13 11 10 9 9 12 13 13 14 13 13 11 12 14 17 21 25 29 33 36 39 41 43 43 44 46 45 44
10 11 15 14 13 12 13 14 13 15 16 16 14 13 12 11 15 17 20 25 28 32 35 39 41 43 43 46 47 44 43 45
10 11 12 12 12 12 15 15 16 18 16 14 12 13 13 15 18 21 25 29 31 35 38 40 42 41 45 48 47 46 47 49
11 13 12 13 13 12 12 13 15 15 15 14 15 18 18 19 21 25 28 33 33 37 40 42 40 44 47 50 54 53 48 49
11 13 13 11 10 9 10 14 14 16 16 16 20 23 25 28 29 35 37 38 39 42 41 41 43 47 50 52 54 54 53 55
12 13 15 14 13 14 14 16 17 19 19 19 21 23 23 25 31 36 39 42 42 45 43 44 47 52 53 54 54 54 55 56
17 18 19 20 21 22 22 21 21 19 16 15 19 23 26 30 34 36 39 41 45 48 46 47 54 57 57 59 58 57 53 56
21 19 19 22 26 30 21 22 19 18 19 19 23 27 29 33 35 37 43 44 47 47 49 55 59 58 61 61 60 56 56 59
21 20 26 22 31 26 30 27 21 20 21 24 27 30 31 33 38 40 44 48 49 50 57 61 60 62 63 61 57 57 59 63
25 25 23 27 26 23 16 13 17 20 25 28 30 32 30 33 35 39 41 50 49 57 59 58 59 61 61 59 58 59 63 67

GFSFLT2_500_spd_039.txt.gz
Wind_Speed
23 24 24 22 25 25 27 29 29 25 28 30 30 27 23 21 16 16 17 16 14 12 8 10 12 13 14 15 12 11 13 16
19 25 27 25 26 28 31 31 40 33 30 38 35 31 26 23 20 18 16 14 10 9 10 10 12 13 12 10 11 13 16 18
26 28 28 23 24 41 30 32 34 40 42 38 41 37 27 27 24 17 13 11 10 10 10 10 10 10 10 12 14 17 20 22
29 31 28 27 26 25 33 37 43 38 49 47 47 38 34 27 20 16 12 11 13 14 11 10 11 12 13 15 18 21 25 26
30 32 30 28 30 28 31 34 43 44 55 58 44 44 33 26 19 14 11 10 12 12 13 12 12 14 17 20 24 27 30 32
30 29 30 29 30 36 40 34 51 55 35 42 39 44 32 21 15 11 12 12 13 13 13 13 13 16 20 24 28 31 33 34
31 28 31 32 31 29 37 40 29 31 39 45 45 25 20 14 11 11 11 13 12 12 12 14 17 21 24 28 32 35 37 40
32 31 31 35 34 30 42 30 26 28 34 33 23 18 13 9 9 11 13 11 11 13 14 17 20 25 28 33 36 38 40 42
27 28 31 32 30 25 36 25 15 18 23 20 16 13 9 9 11 14 14 12 14 15 18 22 25 29 33 36 38 40 41 42
22 21 24 33 25 17 16 20 24 20 14 14 11 10 11 10 13 14 15 13 14 18 22 26 29 32 35 38 38 38 40 44
19 15 19 19 21 17 15 14 17 16 15 12 11 11 12 12 12 12 13 14 18 22 26 30 32 35 37 39 38 41 43 43
10 10 11 10 11 10 10 8 8 10 10 10 11 11 11 11 12 13 16 19 21 26 29 32 34 38 39 37 41 44 45 45
5 6 8 7 9 9 7 9 9 10 11 12 13 12 13 15 17 18 20 22 25 28 31 33 36 41 39 41 45 42 45 46
2 2 4 4 4 5 8 11 13 14 16 16 15 15 17 18 20 21 24 27 31 35 41 39 42 43 41 44 47 51 51 49
8 7 7 8 8 9 9 11 13 16 17 16 15 16 17 21 25 29 34 34 38 40 39 39 42 43 43 48 52 54 56 59
10 10 11 12 13 13 12 14 15 18 18 19 20 20 22 26 26 30 30 35 38 39 40 42 46 50 51 53 56 56 58 60
13 14 15 17 17 20 21 19 20 21 22 22 22 20 21 24 27 31 35 38 41 41 43 46 47 53 56 59 58 57 57 59
17 19 19 19 19 22 27 26 30 28 26 28 24 21 21 27 29 33 35 39 42 42 42 46 55 55 59 61 60 61 62 62
23 22 21 19 24 19 31 36 26 32 30 22 18 22 27 30 32 33 35 39 40 47 49 54 57 58 66 62 61 62 62 60
23 24 23 22 24 29 24 36 11 5 13 18 21 24 29 32 31 32 37 39 43 48 52 56 58 62 63 60 61 65 66 65

GFSFLT2_500_spd_042.txt.gz
Wind_Speed
19 25 24 16 24 21 19 20 27 27 26 25 27 28 28 25 19 16 12 12 13 13 10 8 6 7 10 11 10 9 9 9
37 23 26 28 26 21 23 26 24 33 27 26 22 24 29 32 26 19 16 12 12 11 9 7 6 8 10 9 9 9 9 16
18 16 21 29 13 14 23 26 25 31 32 28 39 36 36 38 32 27 19 11 11 10 8 6 8 6 8 8 10 13 14 17
22 21 16 23 15 17 17 17 30 21 31 30 33 34 42 41 38 32 18 14 11 10 10 9 8 8 10 11 13 17 18 22
21 22 25 23 22 21 18 23 25 22 29 35 39 37 46 50 41 34 24 18 14 12 12 11 10 9 11 15 17 20 21 25
24 22 24 25 25 25 25 27 33 34 35 42 46 46 38 35 35 28 19 14 12 10 10 11 9 11 15 17 20 23 25 29
27 26 27 26 24 22 25 29 40 37 31 35 34 43 36 38 17 19 11 10 9 10 11 10 11 14 17 20 23 27 29 31
30 29 29 26 29 28 27 28 34 37 25 28 35 38 30 19 17 10 11 9 9 10 9 11 13 17 20 23 26 29 31 32
32 31 29 29 28 25 28 28 30 27 21 19 23 20 23 14 10 11 10 9 10 11 11 14 17 19 23 25 29 33 33 34
25 27 26 24 20 22 30 28 26 22 14 15 20 18 14 12 10 10 10 12 12 13 14 17 19 22 25 27 31 33 33 36
3 13 19 28 33 30 19 19 19 15 17 18 16 12 11 10 11 12 12 13 15 15 17 20 21 22 24 30 33 34 36 39
15 16 18 18 16 18 14 13 15 15 16 11 4 9 12 11 9 13 13 14 15 19 20 23 21 29 35 35 37 38 39 41
11 11 12 7 8 10 9 8 10 11 9 11 13 12 14 11 12 11 13 16 20 22 25 28 30 35 36 36 38 38 42 44
6 7 5 4 7 7 6 6 3 3 8 10 12 15 13 12 11 15 18 22 26 28 31 34 37 37 37 39 42 45 47 50
7 8 8 8 6 6 7 7 6 9 13 14 14 16 12 13 15 18 23 28 31 36 35 40 39 35 40 42 44 48 51 53
7 8 10 11 10 10 11 10 10 11 15 16 16 18 17 18 20 22 24 27 30 31 34 37 38 39 41 44 50 52 54 59
8 9 10 13 14 13 15 16 18 17 19 22 23 22 23 26 24 22 24 28 32 34 37 38 42 43 47 50 52 56 58 62
11 12 12 12 12 15 15 14 16 26 29 29 29 27 26 24 23 22 28 31 32 33 36 38 40 46 53 52 56 62 66 68
11 13 14 12 10 17 19 23 17 26 25 33 32 31 29 26 23 26 31 32 32 35 37 38 44 49 53 56 60 64 68 69
13 13 14 13 14 15 23 15 20 20 18 14 13 11 17 22 28 32 32 31 32 39 41 43 47 47 53 59 64 66 69 67

GFSFLT2_500_spd_045.txt.gz
Wind_Speed
25 22 24 35 38 36 29 31 25 26 27 26 27 25 26 21 19 18 17 16 15 13 10 10 8 5 3 3 2 3 5 6
17 20 30 36 40 38 29 29 21 23 25 28 25 28 23 23 22 23 20 19 18 15 10 8 7 4 2 4 2 5 5 8
21 24 25 20 35 30 15 22 26 25 23 26 27 21 26 28 32 31 28 24 20 14 11 9 5 4 4 3 4 9 9 12
29 14 15 16 26 20 13 25 25 14 24 20 24 30 27 27 34 32 31 29 20 15 14 11 7 7 5 7 8 10 12 14
16 20 12 10 16 11 11 14 12 11 14 19 17 22 24 39 41 32 35 32 23 21 18 12 9 8 9 10 8 13 15 17
19 20 21 16 13 11 12 12 11 14 22 27 25 24 27 35 36 40 31 36 25 17 12 13 11 10 9 11 13 14 17 15
20 23 23 22 19 17 18 17 9 17 17 26 30 33 33 33 33 30 22 20 17 13 14 13 12 12 12 12 15 17 17 20
20 25 24 22 23 21 17 23 26 34 22 19 18 24 19 26 28 17 23 19 14 13 13 13 13 12 14 15 17 18 20 22
23 24 21 21 20 24 19 17 18 20 20 18 22 20 15 24 20 21 15 12 12 13 15 13 12 13 15 17 18 19 22 24
21 20 20 22 22 20 16 18 23 22 21 26 22 9 14 23 18 15 13 13 15 15 15 13 14 16 16 16 21 25 28 29
6 10 17 18 20 21 21 24 20 24 29 22 14 21 21 18 14 12 11 15 16 17 16 17 18 17 16 21 25 26 29 32
19 24 14 11 20 17 17 24 17 17 14 20 18 17 18 13 10 13 14 15 17 18 19 19 19 21 21 25 28 28 29 32
17 18 22 20 18 15 17 16 15 16 14 18 19 17 13 11 11 14 16 17 17 19 20 23 23 27 31 30 30 32 34 37
12 15 13 13 13 15 13 11 11 8 7 8 11 10 9 11 14 17 19 19 18 21 23 27 31 33 35 32 32 32 36 41
11 12 12 13 12 11 10 9 9 5 3 7 9 9 12 14 16 19 17 22 20 22 26 27 28 30 34 34 37 36 39 43
7 9 9 10 9 6 5 8 8 6 5 6 7 10 14 16 17 18 18 24 23 24 27 29 32 37 35 35 37 39 45 47
2 4 5 4 3 2 5 5 7 8 9 16 17 17 19 19 22 24 26 26 24 28 29 31 32 36 35 39 39 43 48 49
4 3 3 3 4 4 4 4 8 9 11 17 15 20 23 27 24 26 23 25 28 30 31 32 33 32 37 41 44 49 51 52
4 7 7 10 11 10 10 10 10 9 13 16 17 14 24 29 33 28 26 29 29 31 32 32 34 38 43 45 49 51 54 56
9 11 13 12 14 14 13 14 14 7 10 8 11 13 9 9 10 16 23 25 25 23 28 35 37 39 42 46 50 51 56 58

GFSFLT2_500_spd_048.txt.gz
Wind_Speed
26 15 20 34 56 46 58 49 41 42 39 34 28 26 26 23 21 18 16 20 19 18 18 19 14 12 12 10 8 6 7 5
18 17 26 38 55 38 40 50 45 42 38 31 27 29 29 24 22 24 20 23 23 19 19 18 14 16 13 10 7 6 5 6
10 18 19 20 33 40 27 32 42 35 32 25 22 28 25 24 23 24 24 25 27 23 21 17 15 15 15 12 8 6 6 9
16 17 16 22 21 26 32 31 25 30 17 24 21 17 27 23 22 25 26 33 37 28 22 20 19 16 13 12 11 9 10 11
19 17 13 16 11 24 33 15 24 26 14 18 24 17 21 18 23 24 25 28 31 28 19 21 18 14 11 10 9 10 11 12
23 17 12 15 12 16 11 11 14 18 10 13 15 17 16 18 23 24 19 26 26 22 29 31 23 13 13 12 12 11 13 16
20 18 17 12 5 5 7 4 9 12 9 3 10 16 19 17 19 18 16 19 20 24 27 19 15 16 15 11 12 14 17 18
20 20 20 15 14 14 14 9 10 15 18 17 11 13 15 16 17 14 16 17 17 23 16 16 17 16 14 14 14 15 17 17
21 24 23 21 22 20 19 13 12 8 20 20 20 17 16 18 18 17 17 19 22 16 16 17 18 17 15 16 17 15 16 19
22 24 25 25 25 21 21 19 18 17 17 22 19 19 20 20 14 16 20 19 17 17 18 20 20 19 18 17 17 16 18 19
17 21 24 25 22 22 29 28 22 23 21 22 21 21 19 16 16 21 18 16 15 18 20 20 20 19 18 21 20 21 24 23
3 12 25 20 22 25 25 23 23 21 17 20 22 26 17 21 20 18 17 17 21 21 21 21 19 21 23 25 24 26 26 28
18 27 24 14 8 16 20 20 21 23 21 18 19 22 26 20 19 19 19 20 22 22 21 22 22 24 25 28 29 31 28 28
16 18 21 19 15 15 18 17 19 17 13 16 17 20 18 20 20 19 19 21 21 21 20 21 23 25 26 26 27 29 32 31
14 14 14 13 15 16 15 12 14 12 11 9 12 11 13 16 19 21 19 20 22 22 24 24 23 27 27 30 30 32 33 34
11 11 9 9 10 12 13 13 13 14 12 10 9 9 13 16 16 19 21 23 21 22 27 28 27 28 30 32 33 35 35 36
4 5 4 5 6 6 7 8 7 7 4 1 4 11 16 17 17 20 20 22 24 26 31 27 28 30 32 35 36 35 37 38
1 0 1 0 2 1 1 0 0 1 1 1 5 7 17 22 20 23 24 26 26 26 26 30 32 34 37 39 38 39 45 41
3 3 3 5 5 5 4 7 6 10 9 9 8 6 7 17 20 22 25 24 31 28 28 30 28 28 30 38 39 38 41 44
10 11 9 7 6 7 7 9 9 10 10 9 10 8 7 8 14 24 29 27 23 27 27 26 27 31 36 37 39 40 43 50

GFSFLT2_500_spd_051.txt.gz
Wind_Speed
27 43 49 51 48 45 49 49 45 37 37 36 34 32 27 23 23 22 21 17 18 17 17 21 24 24 17 18 16 15 14 12
15 23 17 20 25 43 48 45 46 44 43 39 36 33 28 25 25 22 22 23 20 15 22 21 25 21 18 18 16 15 15 14
15 20 10 19 33 38 44 37 44 43 45 40 38 32 27 26 27 26 23 24 23 22 19 24 23 21 17 19 19 18 16 14
11 17 13 16 15 30 37 32 45 51 44 41 39 26 17 20 27 24 24 24 23 24 25 27 25 22 20 18 19 18 14 12
17 13 9 3 3 13 25 27 37 33 43 41 26 26 21 21 19 22 27 22 17 23 22 28 22 25 23 22 18 16 14 14
17 12 9 9 4 13 17 19 24 26 26 25 26 28 25 15 23 19 18 22 20 18 13 22 26 25 22 21 18 18 16 15
15 12 9 10 5 18 15 15 19 21 25 21 18 16 14 18 18 16 16 18 17 15 17 22 27 30 29 19 23 19 16 16
15 14 14 14 5 15 11 7 16 18 18 16 13 14 16 18 19 17 21 19 17 16 18 23 29 29 22 25 21 15 16 17
13 15 17 17 13 12 11 13 13 14 16 18 17 19 18 15 16 17 23 21 17 19 21 22 25 25 24 23 18 16 18 19
15 17 17 21 20 22 17 16 20 20 18 19 18 17 21 20 22 24 24 18 18 21 23 23 21 22 24 21 19 17 20 20
16 18 21 25 24 23 23 21 27 20 23 19 21 23 21 22 23 24 19 18 23 23 22 22 24 25 23 21 21 21 22 24
15 26 24 33 28 28 26 19 27 25 25 27 24 27 25 24 25 19 20 23 23 24 23 23 23 23 23 23 23 24 26 29
11 15 19 36 34 33 28 27 31 30 26 27 29 26 27 25 21 23 21 20 23 21 19 22 23 23 23 24 26 29 31 28
16 17 17 13 15 15 21 27 29 26 32 27 28 25 23 28 27 24 23 23 18 19 21 24 24 24 23 27 29 28 30 30
10 14 12 11 12 14 13 11 22 26 18 18 17 19 23 23 22 23 23 21 21 21 22 24 26 24 28 30 29 28 30 31
7 10 12 12 10 12 15 17 18 18 15 13 15 16 17 17 18 22 21 23 23 23 24 26 29 30 31 32 32 31 32 32
4 5 7 9 14 13 13 14 14 15 16 13 14 15 17 19 22 20 19 24 25 26 28 27 29 32 33 35 36 35 36 36
5 6 5 7 8 12 15 17 17 19 14 12 11 11 16 21 24 22 23 23 24 25 26 29 32 31 32 36 38 35 31 34
5 6 5 6 6 6 7 9 11 12 11 10 9 11 9 18 21 22 24 25 26 26 29 32 35 35 36 36 33 33 36 36
10 10 8 8 8 9 9 10 11 11 11 12 11 11 10 9 17 16 22 25 26 28 22 29 36 37 35 34 36 36 36 40

GFSFLT2_500_spd_054.txt.gz
Wind_Speed
33 32 32 35 35 36 36 34 28 28 43 32 32 29 26 21 18 14 15 15 14 16 18 22 21 19 20 21 19 16 15 16
22 31 33 23 31 31 36 37 37 37 42 41 39 32 26 21 18 17 18 17 17 20 22 18 20 22 22 21 17 18 18 18
24 23 30 24 30 28 35 43 53 42 50 44 40 31 24 20 19 22 21 20 20 19 22 21 21 21 24 19 21 21 21 20
15 8 10 17 18 18 35 38 54 48 53 43 40 33 24 22 24 23 25 25 22 18 20 22 24 22 19 22 24 24 22 20
14 8 5 5 12 12 20 28 41 47 48 43 39 34 24 23 19 24 27 24 20 19 16 20 19 20 24 23 26 25 23 20
12 12 6 5 2 17 14 38 32 40 45 39 43 27 28 23 23 23 23 19 23 26 22 21 19 22 24 26 25 26 22 19
17 10 9 6 5 12 19 27 28 27 40 39 29 26 26 25 24 18 26 21 17 24 25 21 19 21 27 27 26 24 21 20
14 10 9 5 9 23 24 22 22 23 29 28 28 26 24 21 25 22 22 23 23 25 25 21 20 26 29 31 28 25 23 19
14 12 10 12 10 19 19 22 31 25 22 20 23 26 24 17 20 27 27 23 25 27 23 20 23 30 33 31 28 24 23 21
14 17 15 17 17 20 19 18 16 20 21 22 24 23 20 17 21 22 24 24 28 28 22 21 27 31 30 33 25 26 23 21
15 21 20 20 21 18 20 20 19 21 22 26 23 24 20 19 22 24 26 25 27 26 22 22 26 27 31 27 26 24 23 23
17 22 24 25 21 21 22 19 21 22 26 24 25 21 22 27 22 25 25 26 26 23 23 22 22 25 26 25 25 24 24 25
18 20 25 26 20 26 22 25 25 23 24 24 22 25 27 28 24 27 26 24 25 25 24 24 24 24 24 25 24 25 25 27
15 11 26 33 24 27 26 26 30 30 34 27 21 26 27 28 30 30 27 22 25 24 22 22 24 24 24 26 26 25 27 29
10 11 9 11 18 30 32 34 33 33 32 29 27 25 30 32 30 30 28 27 24 22 21 22 24 23 26 26 26 26 30 32
4 6 9 10 13 12 16 24 29 33 30 29 30 28 30 29 26 27 25 25 24 23 23 22 23 25 26 28 31 30 34 33
2 2 4 4 7 9 9 9 12 23 22 17 16 16 15 17 22 25 24 25 23 27 26 26 26 27 28 31 31 35 33 35
6 4 3 4 6 7 10 13 16 18 17 18 20 19 21 24 27 26 27 28 29 31 33 27 26 28 29 32 35 38 36 37
6 6 5 5 6 6 7 7 10 12 14 12 15 18 18 20 26 27 29 32 31 28 27 25 24 31 30 34 40 41 39 38
10 11 10 9 7 7 8 9 11 16 17 17 17 14 15 16 16 23 27 29 26 28 24 27 31 36 37 39 38 38 39 41

GFSFLT2_500_spd_057.txt.gz
Wind_Speed
24 26 34 31 36 31 28 27 27 27 25 35 34 36 31 27 20 18 16 14 13 11 13 12 12 15 15 17 19 20 19 19
24 38 39 27 20 27 30 33 37 21 22 30 34 40 34 26 23 20 18 16 16 15 14 14 14 15 16 17 20 20 19 19
18 22 23 33 28 26 27 32 32 22 26 27 38 37 35 27 24 22 20 19 19 18 19 15 18 18 19 19 24 20 21 20
14 5 21 36 36 42 35 38 32 27 31 29 28 42 35 30 26 25 21 18 18 21 21 20 19 21 20 19 21 21 22 22
10 8 13 11 20 27 29 39 42 47 36 40 33 45 34 30 27 26 22 23 22 25 22 20 20 22 19 20 20 23 23 24
2 3 1 6 11 19 24 32 35 46 52 43 40 44 41 32 30 28 26 23 23 24 25 21 22 20 20 21 25 24 25 27
8 7 7 7 12 11 19 23 32 48 47 45 44 47 44 36 31 32 24 19 23 22 18 27 25 26 21 23 26 25 27 25
8 10 11 8 12 9 19 25 32 44 33 39 44 49 47 39 37 32 23 20 23 25 21 25 27 26 25 27 26 27 25 26
7 11 13 11 9 14 18 23 28 31 28 36 38 38 45 37 37 33 27 23 25 27 28 28 27 26 25 27 28 28 26 25
7 12 14 17 14 17 20 24 29 27 23 26 29 39 37 35 36 34 31 28 30 29 26 29 27 25 28 30 29 28 29 28
8 12 13 14 16 18 23 29 31 29 30 33 27 31 32 33 33 29 24 26 30 27 26 26 28 27 30 31 31 30 30 25
9 12 15 19 21 20 25 27 29 29 27 28 30 31 31 32 27 22 22 25 26 27 27 29 30 27 32 35 33 33 30 25
16 19 21 23 26 26 22 19 23 21 24 24 26 29 30 30 27 26 23 24 27 26 28 28 27 27 30 28 31 24 22 27
19 11 23 26 28 24 24 28 23 30 25 24 29 24 28 28 28 27 24 24 27 27 26 26 27 24 21 21 22 25 27 26
13 14 9 25 23 30 25 27 26 29 27 26 27 31 30 28 28 30 27 26 27 27 26 26 24 23 24 26 28 28 29 31
8 7 8 3 14 26 22 27 25 26 29 29 34 25 25 32 29 31 27 28 28 28 29 25 26 27 30 31 31 31 32 30
7 6 1 4 4 5 9 15 27 29 35 32 34 29 24 29 33 30 30 29 31 31 27 26 26 28 30 30 29 27 30 33
7 5 5 5 5 8 8 9 6 17 25 23 23 24 19 19 23 24 26 25 26 28 28 30 33 34 31 29 30 29 32 34
7 7 7 6 7 9 8 8 8 10 14 16 16 17 19 19 20 21 23 26 31 33 32 33 36 35 30 30 32 35 35 33
11 12 12 9 7 8 10 9 10 12 13 15 15 17 19 19 18 20 26 31 34 35 35 33 33 32 32 34 33 37 34 42

GFSFLT2_500_spd_063.txt.gz
Wind_Speed
30 34 38 43 38 33 34 28 28 25 26 27 27 22 26 38 36 32 28 21 25 24 22 20 18 14 13 10 10 12 13 13
28 31 28 28 38 33 42 37 40 35 32 29 31 21 34 43 38 37 30 25 24 25 24 21 18 16 16 14 11 10 11 15
32 25 13 16 35 41 35 38 45 34 32 28 31 31 34 33 38 36 32 28 26 27 25 22 19 17 16 16 15 13 13 13
24 22 14 12 23 24 35 42 43 30 32 32 30 33 33 33 39 40 38 31 29 28 26 24 21 17 20 18 19 18 16 15
16 17 11 12 16 20 35 21 42 38 36 33 33 32 31 32 43 42 40 32 29 29 28 25 20 20 21 20 19 19 18 18
13 12 11 10 13 19 27 39 33 39 33 36 31 35 35 37 42 39 37 34 30 31 29 27 22 21 20 21 21 19 17 20
7 7 7 7 14 11 23 35 39 43 39 42 38 43 40 43 46 45 42 37 33 33 33 29 23 22 20 22 21 20 21 22
8 7 8 10 12 13 19 29 37 40 42 45 43 47 49 44 46 49 48 41 36 35 35 29 24 24 23 26 29 28 28 24
7 11 14 15 13 13 18 25 32 41 42 44 44 43 42 44 44 57 48 42 37 37 35 30 27 27 28 26 24 25 26 24
9 10 13 15 14 16 15 18 27 34 40 43 44 46 39 38 30 47 49 45 38 38 34 30 29 29 32 29 28 24 25 29
7 6 9 14 16 18 15 13 24 31 33 41 47 47 42 41 40 40 52 49 41 38 34 28 27 29 29 31 30 27 28 30
11 11 11 12 16 17 20 16 16 28 29 31 38 41 36 36 43 39 53 51 44 40 35 35 32 31 34 31 29 30 31 33
13 14 15 20 21 21 18 18 16 24 29 35 41 39 30 28 34 40 47 52 46 42 38 36 33 35 35 31 29 30 33 34
12 16 21 23 24 26 25 20 20 21 25 27 32 35 31 28 26 21 39 43 36 37 31 31 32 31 31 30 31 33 33 34
12 14 20 15 15 25 24 19 17 21 27 29 28 23 23 20 17 18 24 24 27 26 27 29 28 28 29 30 34 32 35 33
10 12 13 14 2 13 16 17 17 22 17 19 21 21 22 21 15 18 25 28 28 28 29 30 31 28 30 30 33 31 20 23
10 9 9 8 6 7 12 15 21 24 19 16 20 15 16 15 19 26 21 24 32 35 31 29 30 23 20 26 24 26 26 23
8 8 7 6 5 4 5 8 12 18 21 18 19 21 23 19 23 26 25 24 29 33 29 32 34 29 22 22 21 23 26 29
7 7 7 8 6 8 7 7 8 6 8 11 25 29 29 26 26 28 30 28 29 33 36 36 32 24 19 21 23 27 30 34
10 8 7 8 7 8 8 10 10 8 7 8 8 23 25 24 22 24 17 19 27 29 28 28 25 25 22 24 27 29 33 36

GFSFLT2_500_spd_066.txt.gz
Wind_Speed
31 31 28 30 34 37 38 41 30 34 41 34 24 28 35 37 36 34 33 33 27 19 16 18 21 19 17 16 13 14 13 12
30 33 33 32 32 30 39 50 31 31 39 36 32 29 22 28 38 37 35 33 29 19 20 21 22 21 20 17 14 10 8 9
27 30 29 28 30 30 37 45 45 30 37 35 35 28 23 18 30 40 37 34 29 24 23 24 23 21 18 18 17 14 13 12
24 27 23 24 25 21 36 45 43 45 38 32 32 29 29 23 32 39 38 38 32 24 25 22 23 22 20 20 21 17 15 15
21 24 20 19 21 20 19 24 26 36 39 38 31 27 27 29 30 35 42 37 33 31 25 24 24 24 23 23 21 17 16 16
15 13 16 17 19 14 18 30 26 32 44 33 31 28 29 31 26 33 41 38 34 35 28 27 25 25 25 26 24 19 19 16
8 6 9 10 12 14 17 15 22 32 42 29 25 28 28 30 28 30 37 37 37 35 28 27 27 27 26 27 26 19 20 17
5 4 9 9 10 12 12 14 26 35 39 33 27 27 27 30 33 30 33 39 39 36 32 30 30 29 29 28 27 21 22 21
9 9 9 12 12 13 11 14 34 39 37 35 38 29 33 33 37 35 39 42 44 37 37 35 33 30 29 30 27 21 21 21
8 9 9 11 12 14 13 11 21 28 33 35 37 39 37 42 37 41 40 44 48 45 41 37 35 33 32 30 29 27 25 23
11 10 10 12 15 15 17 17 17 21 31 36 41 46 40 41 44 48 47 46 49 51 46 40 37 35 34 31 29 27 26 26
12 12 12 12 15 19 19 19 19 17 24 28 36 40 38 41 38 33 34 42 38 50 50 41 38 38 35 28 27 25 25 26
13 12 13 17 21 23 24 20 18 20 18 28 32 37 37 39 42 41 38 42 42 52 52 45 41 40 37 29 28 30 28 28
13 13 16 18 23 19 20 20 15 16 14 23 30 28 29 36 33 34 31 35 49 42 47 50 42 43 36 31 31 27 26 28
11 14 16 19 20 12 10 16 14 15 15 14 25 21 26 33 36 36 29 28 30 30 43 42 35 35 28 27 27 24 27 29
10 12 16 16 15 7 4 11 12 12 12 9 19 22 24 22 20 15 11 10 9 13 25 24 26 23 24 26 26 25 27 25
7 11 11 12 10 8 5 6 10 11 12 15 8 13 6 16 20 13 10 5 6 20 23 24 24 24 27 28 27 21 20 20
7 10 10 11 9 7 6 4 4 11 15 15 19 15 10 5 10 11 11 13 12 12 22 24 24 26 27 29 27 21 20 19
8 9 7 8 10 9 8 7 6 4 3 4 10 13 17 18 18 19 16 17 18 18 21 24 25 30 29 27 23 22 25 22
11 11 10 8 8 7 8 8 8 7 7 5 6 7 20 20 18 23 19 23 24 18 24 30 30 32 31 28 22 22 24 23

GFSFLT2_500_spd_069.txt.gz
Wind_Speed
22 22 24 28 28 31 33 29 36 28 28 33 34 28 34 31 31 34 38 41 40 33 28 28 22 19 20 18 17 14 14 14
23 23 24 25 26 28 29 34 39 34 40 35 35 32 33 33 30 45 47 41 35 32 29 26 25 22 19 18 15 11 10 9
23 24 25 25 25 23 25 26 30 33 44 47 35 28 25 27 35 39 42 43 39 32 27 25 24 21 20 17 13 16 11 11
20 24 22 23 22 19 23 26 30 35 32 35 41 40 32 26 18 38 38 38 34 33 29 24 22 21 20 15 17 16 15 13
19 23 20 18 16 16 20 26 27 27 31 46 37 41 41 28 24 17 27 38 35 34 29 27 24 21 21 16 21 17 16 17
16 14 11 7 10 15 15 20 16 16 31 46 39 26 33 26 29 27 27 33 37 36 34 32 21 25 23 20 21 19 17 18
14 11 8 7 7 9 12 14 18 17 28 48 48 25 28 30 27 26 29 35 39 38 38 35 24 26 25 21 23 21 20 21
13 11 13 10 11 10 10 12 17 24 28 42 39 27 32 27 24 25 28 34 37 38 37 35 27 29 28 21 24 24 20 20
10 10 13 14 12 9 9 11 10 24 33 40 39 25 26 24 23 25 26 27 34 38 37 35 29 29 31 26 24 26 23 22
8 9 10 13 11 10 6 8 6 20 32 38 34 28 21 23 23 24 31 31 27 36 39 36 31 31 35 33 26 26 26 24
8 9 9 12 12 10 8 8 9 16 33 34 33 32 35 33 30 27 31 32 31 32 37 38 40 34 38 36 31 27 28 24
8 9 11 11 14 14 14 13 13 14 19 24 31 35 35 38 34 33 36 38 31 34 40 43 45 43 42 39 35 28 29 22
7 8 11 14 14 18 20 17 17 15 17 20 25 28 34 37 37 37 33 37 29 32 34 38 42 49 54 43 37 33 27 24
8 7 8 12 17 19 18 17 17 14 15 15 15 22 20 28 34 31 32 31 31 30 31 36 40 39 54 46 39 37 31 24
6 8 9 13 16 17 13 8 14 13 9 8 9 15 19 20 26 27 29 32 36 35 35 36 34 42 51 45 37 32 27 22
5 9 12 13 11 11 4 3 7 6 6 8 7 10 16 24 21 27 29 30 35 38 37 36 30 21 35 32 24 23 25 24
8 10 13 11 9 8 5 1 5 6 9 7 10 6 18 22 23 23 28 21 22 22 18 19 17 19 20 20 21 23 25 26
10 11 12 9 8 6 6 5 3 2 6 7 7 6 2 7 10 22 17 20 17 12 14 15 16 20 23 22 23 24 26 24
12 10 12 11 10 7 5 5 3 3 3 2 4 12 13 13 13 16 17 19 13 14 13 14 20 23 23 24 25 26 23 26
13 12 11 12 10 9 5 5 6 3 2 2 4 6 14 21 22 19 19 19 19 20 16 20 21 24 25 25 25 29 27 25

GFSFLT2_500_spd_072.txt.gz
Wind_Speed
23 24 24 27 28 28 28 34 45 35 43 44 29 31 30 28 34 32 35 36 36 36 37 38 39 29 20 20 19 19 19 18
27 26 24 28 29 27 27 30 33 38 28 31 32 23 39 36 29 29 35 36 36 36 37 35 34 24 20 19 18 18 18 16
26 27 27 27 27 24 24 26 29 26 31 29 27 30 32 27 29 30 35 39 42 36 37 38 27 23 22 21 18 18 17 13
25 23 23 22 24 21 21 20 20 21 24 29 32 39 35 28 25 31 35 38 38 39 40 38 26 25 22 22 18 19 19 15
20 19 16 16 17 18 15 15 20 23 25 28 27 37 33 28 24 24 26 29 50 46 39 32 29 26 21 24 18 20 19 17
16 14 13 8 6 10 10 13 14 19 22 30 30 45 37 38 27 23 17 38 40 39 36 33 30 24 23 19 20 21 19 17
13 10 8 8 6 8 9 9 14 14 15 24 29 49 42 36 32 25 24 24 31 32 35 34 31 28 29 26 22 22 21 18
11 12 10 9 10 10 10 10 13 14 20 22 31 48 43 29 30 30 29 31 33 36 41 37 34 31 25 25 24 22 22 20
11 12 11 9 8 9 9 9 10 13 20 26 45 36 38 27 30 30 32 30 34 35 41 37 36 34 33 25 28 23 22 22
13 12 12 8 6 7 7 8 10 6 14 22 43 48 42 27 26 27 27 27 25 29 30 31 32 32 32 32 27 26 24 23
13 13 12 13 10 8 8 8 8 5 12 25 50 39 32 27 26 26 23 25 25 25 24 30 36 32 33 34 32 31 28 27
13 12 11 9 11 10 11 14 10 5 12 28 39 40 32 27 22 26 25 24 28 28 26 27 29 29 33 36 37 36 31 30
13 11 10 9 11 11 13 15 15 13 19 26 25 36 34 33 30 29 34 30 26 31 32 28 32 33 36 37 41 42 38 33
14 10 8 10 13 16 15 12 16 19 20 22 19 19 27 31 36 35 35 35 32 28 34 32 28 32 28 41 39 40 45 39
12 9 8 12 17 15 13 6 9 19 19 19 19 20 20 22 27 34 38 37 35 31 34 29 27 28 31 29 35 35 43 46
11 9 9 14 12 12 10 5 10 16 15 12 12 13 19 24 22 29 36 33 30 30 31 31 28 30 34 34 27 22 33 33
12 9 9 11 9 8 7 5 4 10 11 13 12 14 21 25 28 28 28 29 27 26 29 30 33 36 36 30 26 22 27 27
13 11 9 7 9 6 6 4 2 4 8 11 12 13 18 25 25 29 25 26 27 27 28 26 25 28 30 29 23 25 25 26
16 14 12 8 7 6 4 2 3 2 2 3 7 15 11 15 16 23 25 27 27 24 24 20 23 24 22 22 23 25 26 26
18 17 16 12 8 5 5 3 3 3 5 5 6 8 12 16 18 19 24 23 24 24 23 25 27 29 29 28 29 31 28 26

GFSFLT2_500_spd_075.txt.gz
Wind_Speed
24 21 24 28 28 32 36 37 36 36 47 52 36 33 29 39 32 31 33 34 33 32 28 29 24 34 30 28 25 17 19 17
30 24 26 31 30 34 37 39 34 34 36 47 36 39 32 30 25 25 32 33 30 30 30 29 36 34 33 31 22 20 18 18
24 20 23 26 30 33 35 37 31 33 36 29 23 32 31 32 29 30 25 31 29 30 28 30 33 36 37 32 20 16 16 15
22 24 23 23 26 30 33 32 28 27 23 22 27 28 29 31 29 31 25 27 27 31 26 32 36 35 33 24 18 19 15 15
21 25 21 20 21 25 30 28 25 20 18 20 23 31 33 36 32 28 23 25 28 26 31 36 30 34 35 24 24 20 15 16
20 22 19 15 14 17 16 18 20 20 23 25 28 31 30 35 37 33 26 28 25 27 33 33 35 37 32 26 20 21 16 17
20 17 17 13 11 13 14 16 17 16 15 16 25 33 29 41 37 29 26 24 30 28 24 40 38 35 28 26 23 21 18 18
18 15 15 14 11 13 14 16 17 17 16 19 22 34 39 38 39 32 26 24 18 22 25 35 36 31 30 28 27 25 21 21
16 15 11 11 11 12 11 12 15 17 20 20 20 31 54 40 46 39 27 28 27 23 27 34 34 33 33 29 33 26 24 23
16 15 13 12 13 11 10 11 13 16 14 21 26 32 51 37 44 33 27 28 26 27 29 33 35 37 35 31 31 26 27 25
17 17 14 13 14 14 14 14 13 14 10 16 26 28 50 41 36 27 30 24 27 28 29 28 33 37 36 34 35 34 31 28
17 16 15 13 12 14 17 17 16 14 11 18 25 31 46 49 35 32 28 26 23 28 22 26 26 33 32 36 35 34 35 35
17 15 16 13 10 13 17 20 21 17 11 14 30 44 46 43 41 33 28 24 24 26 26 26 25 24 27 31 36 35 31 35
15 15 15 12 10 16 21 23 22 19 14 19 24 34 39 38 32 28 21 25 28 26 26 29 32 28 27 31 37 41 38 40
15 13 13 11 15 16 17 17 17 16 19 24 26 26 22 35 34 27 26 26 29 34 32 29 32 32 30 27 33 33 37 38
15 11 10 12 14 11 11 9 7 12 16 16 21 21 22 19 22 29 28 35 34 36 38 35 37 33 31 27 30 28 33 30
14 11 9 11 11 9 7 7 4 6 13 15 15 21 22 29 30 32 35 33 38 38 42 39 39 35 31 31 30 32 33 26
15 12 10 8 9 9 5 2 1 5 11 13 14 17 21 23 35 33 30 28 33 36 36 34 33 31 32 34 34 34 35 33
16 14 12 9 7 10 7 3 3 5 6 9 14 17 15 19 30 39 42 38 34 32 33 35 34 32 30 32 32 34 36 31
18 16 13 12 8 8 9 7 4 4 7 5 5 5 12 10 20 27 31 34 35 33 37 35 36 36 39 30 29 32 29 28

GFSFLT2_500_spd_078.txt.gz
Wind_Speed
24 26 26 28 28 32 35 34 34 31 33 33 37 45 30 40 28 35 27 26 30 28 25 25 26 27 25 24 22 22 24 24
25 24 23 24 25 32 37 37 34 31 35 35 35 34 38 36 36 39 20 23 28 32 31 28 28 28 31 24 25 26 27 19
25 23 20 22 27 31 35 36 34 33 32 32 31 29 26 45 33 29 31 19 25 31 33 32 31 25 26 28 29 29 29 21
24 22 19 24 23 27 29 29 31 31 27 30 30 21 23 36 26 28 32 24 24 32 32 33 31 28 28 30 32 30 23 11
22 21 19 24 23 25 23 23 23 27 27 25 26 23 27 28 25 28 29 25 23 27 27 27 28 31 30 29 28 28 15 17
21 19 19 23 22 21 20 18 17 19 25 25 23 25 22 32 31 32 31 30 22 25 26 30 29 32 31 27 29 27 20 19
19 17 19 22 21 21 22 19 17 17 19 23 27 30 28 31 35 38 34 35 24 26 30 28 27 29 32 34 34 29 22 22
18 17 19 19 19 19 21 19 15 18 17 23 24 23 31 34 38 36 35 34 23 28 33 33 28 32 33 34 30 23 21 21
20 18 19 18 18 18 18 18 17 13 16 19 25 27 26 36 39 37 42 32 29 22 35 32 32 32 38 37 28 26 26 26
22 20 18 17 19 20 19 18 17 16 16 17 24 30 27 33 38 45 44 39 27 27 26 31 23 23 31 32 29 28 29 32
23 21 17 15 18 20 19 19 20 21 21 18 22 26 27 32 46 47 49 42 27 26 24 25 24 26 30 37 35 31 29 37
19 20 16 14 16 18 20 19 19 21 25 23 24 23 26 41 49 50 48 40 27 26 25 25 25 29 33 39 38 34 28 31
16 18 16 14 15 18 20 21 26 26 25 23 23 23 28 30 53 49 49 35 30 24 25 24 26 28 30 34 37 30 31 31
15 15 15 12 13 17 23 27 28 28 24 21 21 22 27 38 49 54 42 32 28 22 25 26 24 25 28 26 28 27 28 30
16 15 13 10 11 18 19 17 19 18 19 16 12 21 27 38 54 49 36 33 26 25 24 24 26 27 27 27 26 26 31 32
15 15 13 8 12 13 13 14 12 11 6 13 16 16 20 31 39 38 39 23 18 20 25 27 29 28 27 28 33 31 31 33
15 14 13 10 8 8 11 11 9 7 3 9 11 12 17 18 21 35 30 25 24 23 26 28 33 31 29 31 34 32 32 32
15 14 13 11 7 7 8 9 7 3 3 4 8 11 13 18 20 23 34 33 28 27 28 31 34 36 34 37 37 36 33 35
16 15 14 13 10 6 6 6 8 5 2 4 6 10 14 16 18 25 29 22 29 28 28 32 36 37 39 37 35 34 34 36
16 16 16 16 14 9 6 4 5 7 6 6 6 5 7 12 15 17 27 30 28 32 33 34 34 32 35 36 37 36 32 33

GFSFLT2_500_spd_084.txt.gz
Wind_Speed
30 32 30 28 32 32 31 28 28 26 23 27 24 25 25 31 30 29 29 32 27 26 29 32 34 31 30 25 24 22 23 21
31 32 31 27 31 32 30 28 25 27 24 28 24 25 22 19 23 26 17 27 29 27 31 32 34 32 32 27 23 23 23 24
34 32 27 25 30 32 29 27 26 27 25 26 24 25 24 19 21 26 23 24 28 28 26 33 33 33 25 29 25 25 25 25
35 34 25 24 31 32 29 25 26 25 24 26 24 24 25 23 27 28 24 28 30 33 25 34 32 32 30 28 30 29 27 26
33 33 24 27 31 32 27 25 24 23 22 23 24 24 24 26 30 25 24 24 27 28 24 30 32 34 33 31 30 30 28 28
31 32 28 29 32 32 27 23 23 22 21 22 23 23 26 25 25 25 20 30 22 32 28 31 34 37 35 33 32 33 34 30
28 30 29 30 33 33 26 21 21 21 21 22 21 21 27 26 24 22 20 27 25 26 31 29 34 39 37 34 32 28 32 33
29 27 31 32 32 33 26 20 19 20 20 21 18 20 22 23 24 22 22 28 30 30 32 30 33 38 40 39 36 32 32 30
29 28 29 33 34 33 26 21 19 19 18 19 17 19 20 20 21 24 26 36 35 30 36 30 29 34 38 39 38 38 34 29
29 30 31 33 32 32 26 22 20 20 19 18 16 15 18 21 23 24 28 33 42 34 38 31 29 32 36 36 37 39 37 34
29 27 30 29 29 29 25 22 21 19 18 20 19 20 19 19 23 28 26 30 48 42 41 35 31 35 35 39 39 37 35 35
25 25 27 24 28 26 24 22 21 18 19 21 21 20 21 21 24 25 28 31 39 45 43 42 37 37 38 38 37 35 34 35
22 24 24 23 26 26 23 23 21 19 21 24 27 30 28 26 25 24 26 31 33 48 48 48 42 36 38 37 33 33 36 36
23 21 24 25 26 24 23 21 21 23 25 28 29 30 29 28 26 23 30 27 33 39 46 43 43 37 30 36 34 31 33 36
24 24 26 23 26 23 22 20 20 24 23 27 27 26 24 25 21 25 33 40 29 35 40 46 40 36 30 28 31 29 32 32
29 27 26 22 26 24 20 17 20 19 17 18 13 15 18 19 18 28 38 41 39 38 44 45 33 26 28 31 32 33 34 37
30 29 26 24 27 23 19 18 16 14 11 10 6 10 11 11 28 32 30 41 43 42 51 44 30 24 27 31 34 32 36 36
29 27 26 26 27 22 20 17 13 10 7 9 7 4 3 9 11 21 33 35 34 41 49 44 32 27 32 32 30 29 30 32
26 24 28 26 29 22 22 15 11 8 6 5 4 4 6 6 7 6 22 35 36 41 43 41 33 32 38 31 30 31 31 33
27 28 27 27 27 23 22 15 11 7 6 4 4 2 3 6 6 9 6 26 35 36 33 28 28 23 22 24 25 28 28 32

GFSFLT2_500_spd_087.txt.gz
Wind_Speed
21 23 25 27 27 28 29 28 30 32 32 28 27 25 24 25 24 27 28 26 35 32 30 31 34 34 32 29 26 27 24 24
20 22 26 29 29 30 30 29 30 34 32 30 26 26 25 25 25 26 29 23 22 23 35 33 34 34 34 31 30 29 27 23
19 24 27 29 30 30 30 30 31 34 32 30 27 26 24 24 26 25 20 21 21 16 30 33 29 36 35 31 31 30 30 23
19 24 29 31 30 28 28 28 31 34 31 30 28 25 25 26 27 25 27 28 19 22 23 35 27 33 34 34 33 32 33 24
20 25 30 32 30 28 27 27 31 31 28 28 29 24 22 25 30 26 27 23 23 24 22 30 27 31 35 35 36 34 31 29
21 26 31 34 33 29 26 28 31 30 27 26 28 24 21 25 27 28 27 26 26 29 27 34 29 33 36 37 36 38 34 31
26 29 32 34 36 28 27 28 31 29 27 24 24 22 21 23 25 25 25 26 21 26 24 28 31 34 35 37 39 38 35 34
30 31 33 33 33 29 29 29 31 29 25 23 21 21 21 23 22 27 26 27 24 29 24 30 34 35 37 37 40 37 34 32
30 31 33 32 32 28 30 30 30 29 25 23 19 20 21 21 22 24 27 26 23 30 25 35 31 35 37 38 41 37 37 33
32 31 33 30 31 28 30 31 29 28 25 22 21 20 21 20 21 20 23 26 21 32 32 33 37 36 37 38 39 39 36 35
33 33 32 30 27 30 28 30 28 28 25 23 22 22 21 21 22 24 25 25 27 30 31 36 38 38 34 35 36 39 38 39
34 33 31 26 27 25 26 26 27 25 24 22 23 23 22 22 23 24 25 28 28 28 39 38 40 39 30 30 34 33 35 35
35 31 27 25 24 26 24 24 24 23 24 21 24 24 25 28 28 27 24 27 25 27 37 41 42 37 32 29 30 30 34 31
36 30 28 22 25 23 22 24 22 23 23 22 25 28 32 34 36 35 31 30 28 29 28 36 39 41 31 30 29 31 31 33
33 29 29 25 27 22 21 22 23 23 22 24 27 29 33 35 36 36 33 31 28 26 30 30 38 39 39 38 31 36 36 36
33 32 31 28 27 22 21 21 24 21 21 24 24 26 24 27 31 33 32 34 33 35 28 30 33 38 38 41 35 35 38 36
34 34 34 29 29 24 21 20 22 19 22 20 20 17 16 18 21 28 32 30 41 34 36 28 28 36 38 36 34 36 35 33
36 36 36 31 31 27 21 21 20 18 21 19 13 14 13 13 15 21 33 31 36 31 38 37 33 38 38 34 29 32 32 33
34 38 38 37 34 27 21 22 19 20 18 16 9 10 11 11 10 13 17 31 31 38 38 40 33 42 43 31 27 26 30 29
36 40 39 34 34 25 22 22 19 19 15 13 10 8 7 10 9 10 8 24 29 34 41 39 41 46 44 38 29 28 31 30